Hourly Weather Roundup
Issued by NWS Central Illinois

Home | Current Version | Previous Version | Text Only | Print | Product List | Glossary On
Versions: 1 2 3 4 5 6 7 8 9 10 11 12 13 14 15 16 17 18 19 20 21 22 23 24 25 26 27 28 29 30 31 32 33 34 35 36 37 38 39 40 41 42 43 44 45 46 47 48 49 50
000
NZUS43 KILX 152310
HWRILX

AREA WEATHER ROUNDUP
NATIONAL WEATHER SERVICE, LINCOLN IL
600 PM CDT MON SEP 15 2014


CITY           SKY/WX    TMP DP  RH WIND       PRES   REMARKS
BLOOMINGTON    CLOUDY    57  55  93 NW7       30.10R FOG
CHAMPAIGN      LGT RAIN  58  58 100 W3        30.08R FOG
DECATUR        LGT RAIN  60  59  96 W5        30.09R FOG
FLORA          SUNNY     68  62  83 S3        30.06S
GALESBURG      CLOUDY    59  55  85 N17G24    30.12R
JACKSONVILLE   CLOUDY    63  61  94 NW8       30.11R
LACON          PTSUNNY   57  55  91 N3        30.10R
LAWRENCEVILLE  CLOUDY    67  58  72 N7        30.08R
LITCHFIELD     LGT RAIN  60  59  97 CALM      30.08R
$$


CITY           SKY/WX    TMP DP  RH WIND       PRES   REMARKS
LINCOLN        CLOUDY    60  59  95 NW3       30.07R
MACOMB         CLOUDY    64  58  80 NE3       30.12R
MATTOON        CLOUDY    59  58  96 S3        30.05F FOG
MT CARMEL AP   CLOUDY    72  55  56 S5        30.06R
OLNEY-NOBLE AP CLOUDY    68  59  73 CALM      30.06S
PARIS          CLOUDY    58  58  98 CALM      30.07S
PEORIA         CLOUDY    61  57  87 VRB5      30.11R
PONTIAC        CLOUDY    59  59 100 N7        30.10R FOG
RANTOUL        DRIZZLE   58  56  90 CALM      30.09R
ROBINSON       CLOUDY    62  61  96 E5        30.08F
SPRINGFIELD    CLOUDY    62  60  93 NW6       30.09R
TAYLORVILLE    CLOUDY    59  59 100 NW3       30.08R FOG
$$

...REGIONAL REPORTS...


CITY           SKY/WX    TMP DP  RH WIND       PRES   REMARKS
CHICAGO O`HARE CLOUDY    59  53  80 NW5       30.10R
KANKAKEE       LGT RAIN  55  54  97 N3        30.11R
MOLINE         CLOUDY    58  51  78 N12       30.14R
MOUNT VERNON   CLOUDY    70  63  78 CALM      30.06S
PITTSFIELD     CLOUDY    63  59  86 NW8       30.12R
QUINCY         PTSUNNY   64  58  80 N7        30.11R
ROCKFORD       CLOUDY    55  50  83 N10       30.16R
$$


CITY           SKY/WX    TMP DP  RH WIND       PRES   REMARKS
BURLINGTON     PTSUNNY   61  55  81 N10       30.13R
CEDAR RAPIDS   PTSUNNY   59  50  72 N9        30.17R
DES MOINES     PTSUNNY   61  46  57 N10       30.20R
KIRKSVILLE     CLOUDY    60  55  83 NW12      30.17R
OTTUMWA        CLOUDY    59  50  72 N12       30.16S
ST LOUIS       CLOUDY    70  66  87 NW8       30.07R FOG
$$


CITY           SKY/WX    TMP DP  RH WIND       PRES   REMARKS
TERRE HAUTE    CLOUDY    58  56  93 SE5       30.07F
EVANSVILLE     CLOUDY    74  56  53 S7        30.06S
INDIANAPOLIS   LGT RAIN  58  54  86 SW3       30.07F
LAFAYETTE      CLOUDY    57  54  89 N3        30.09R
MADISON        PTSUNNY   57  47  69 NW7       30.15R
MILWAUKEE      PTSUNNY   55  49  80 N3        30.13R
$$




USA.gov is the U.S. government's official web portal to all federal, state and local government web resources and services.